Weather History for Moron de la Frontera, Spain

Change the Weather History Date:

Friday, May 16, 2014

  Actual Average Record
Temperature  
Mean Temperature 70 °F -  
Max Temperature 88 °F 83 °F 96 °F (2012)
Min Temperature 51 °F 58 °F 48 °F (2013)
Cooling Degree Days 4    
Growing Degree Days 20 (Base 50)    
Moisture  
Dew Point 42 °F    
Average Humidity 39    
Maximum Humidity 76    
Minimum Humidity 19    
Precipitation  
Precipitation 0.00 in - - ()
Sea Level Pressure  
Sea Level Pressure 29.90 in    
Wind  
Wind Speed 3 mph ()    
Max Wind Speed 12 mph    
Max Gust Speed 24 mph    
Visibility 16.4 miles    
Events      
Averages and records for this station are not official NWS values.
T = Trace of Precipitation, MM = Missing Value Source: Averaged Metar Reports

Daily Weather History Graph

Daily Weather History Graph

Search for Another Location

Airport:

Trip Planner

Search our weather history database for the weather conditions in past years. The results will help you decide how hot, cold, wet, or windy it might be!

Date:

Astronomy

May. 16, 2014 Rise Set
Actual Time 7:13 AM CEST 9:24 PM CEST
Civil Twilight 6:44 AM CEST 9:53 PM CEST
Nautical Twilight 6:08 AM CEST 10:29 PM CEST
Astronomical Twilight 5:29 AM CEST 11:08 PM CEST
Moon 11:18 PM CEST (5/16) 8:41 AM CEST (5/16)
Length of Visible Light 15h 09m
Length of Day
14h 11m
Waning Gibbous, 97% of the Moon is Illuminated
May 16
Waning Gibbous
May 21
Last Quarter
May 28
New
Jun 5
First Quarter
Jun 13
Full

Hourly Weather History & Observations

Time (CEST) Temp. Dew Point Humidity Pressure Visibility Wind Dir Wind Speed Gust Speed Precip Events Conditions
12:00 AM 62.6 °F 48.2 °F 59% 29.98 in - NNW 2.3 mph - N/A   Clear
1:00 AM 60.8 °F 46.4 °F 59% 29.98 in - WNW 4.6 mph - N/A   Clear
2:00 AM 60.8 °F 46.4 °F 59% 29.98 in - Variable 2.3 mph - N/A   Clear
3:00 AM 60.8 °F 44.6 °F 55% 29.98 in - NNE 2.3 mph - N/A   Clear
4:00 AM 57.2 °F 44.6 °F 63% 29.95 in - Variable 2.3 mph - N/A   Clear
5:00 AM 55.4 °F 46.4 °F 72% 29.95 in - East 3.5 mph - N/A   Clear
6:00 AM 55.4 °F 44.6 °F 67% 29.92 in - East 2.3 mph - N/A   Clear
7:00 AM 53.6 °F 42.8 °F 67% 29.92 in - Variable 1.2 mph - N/A   Clear
8:00 AM 55 °F 47 °F 67% 29.95 in 12 mi Calm Calm - -  
8:00 AM 51.8 °F 44.6 °F 76% 29.95 in - Variable 1.2 mph - N/A   Clear
9:00 AM 60.8 °F 46.4 °F 59% 29.92 in - Variable 2.3 mph - N/A   Clear
10:00 AM 71.6 °F 35.6 °F 27% 29.92 in - Calm Calm - N/A   Clear
11:00 AM 72 °F 45 °F 27% 29.92 in 19 mi North 3.5 mph - -   Scattered Clouds
11:00 AM 73.4 °F 35.6 °F 25% 29.92 in - Variable 2.3 mph - N/A   Clear
12:00 PM 75.2 °F 39.2 °F 27% 29.92 in - NW 4.6 mph - N/A   Clear
1:00 PM 78.8 °F 42.8 °F 28% 29.89 in - NW 4.6 mph - N/A   Clear
2:00 PM 78 °F 46 °F 22% 29.89 in 19 mi SW 4.6 mph - -   Scattered Clouds
2:00 PM 80.6 °F 39.2 °F 23% 29.89 in - Variable 1.2 mph - N/A   Clear
3:00 PM 82.4 °F 41.0 °F 23% 29.86 in - Variable 2.3 mph - N/A   Clear
4:00 PM 84.2 °F 39.2 °F 20% 29.86 in - South 4.6 mph - N/A   Clear
5:00 PM 82 °F 47 °F 19% 29.83 in 16 mi South 5.8 mph - -   Scattered Clouds
5:00 PM 84.2 °F 37.4 °F 19% 29.83 in - SE 11.5 mph 24.2 mph N/A   Clear
6:00 PM 82.4 °F 35.6 °F 19% 29.83 in - Variable 5.8 mph - N/A   Clear
7:00 PM 82.4 °F 35.6 °F 19% 29.83 in - ESE 8.1 mph - N/A   Clear
8:00 PM 79 °F 45 °F 20% 29.82 in 16 mi SE 6.9 mph - -   Scattered Clouds
8:00 PM 80.6 °F 37.4 °F 21% 29.83 in - ESE 6.9 mph - N/A   Clear
9:00 PM 75.2 °F 37.4 °F 25% 29.83 in - ESE 6.9 mph - N/A   Clear
10:00 PM 71.6 °F 35.6 °F 27% 29.86 in - SE 2.3 mph - N/A   Clear
11:00 PM 69.8 °F 35.6 °F 28% 29.89 in - Variable 1.2 mph - N/A   Clear